SCP
0 0 0 0 0 0 0 0 0 0 0 0 0 0 0 0 0 0 0 0 1 1 1 1 1 1 1 1 1 1 1 1 0 0 0 0 0 0 0 0 0 0 0 0
0 0 0 0 0 0 0 0 0 0 0 0 0 0 0 0 0 0 0 0 1 1 1 1 1 1 1 1 1 1 1 1 0 0 0 0 0 0 0 0 0 0 0 0
0 0 0 0 0 0 0 0 0 0 0 0 0 0 0 0 0 0 0 0 0 1 1 1 1 1 1 1 1 1 1 1 0 0 0 1 0 0 0 0 0 0 0 0
0 0 0 0 0 0 0 0 0 0 0 0 0 0 0 0 0 0 0 0 1 1 1 1 1 1 1 1 1 1 1 1 1 1 1 1 1 0 0 0 0 0 0 0
0 0 0 0 0 0 0 0 0 0 0 0 0 0 0 0 0 0 0 1 1 1 0 0 1 1 1 1 1 1 1 1 1 1 1 1 1 0 0 0 0 0 0 0
0 0 0 -0 0 0 -0 0 0 0 0 0 0 0 0 0 0 0 0 1 0 0 0 0 1 1 1 1 1 1 1 1 1 1 1 1 1 0 0 0 0 0 0 0
0 0 0 0 0 0 0 0 0 0 0 0 0 0 0 0 0 0 0 0 0 0 0 0 0 0 0 1 1 1 1 1 1 1 1 1 0 0 0 0 0 0 0 0
0 0 0 0 0 0 0 0 0 0 0 0 0 0 0 0 0 0 0 0 0 0 0 0 0 0 0 0 0 0 0 0 0 1 0 0 0 0 0 0 0 0 0 0
0 0 0 0 0 0 0 0 0 0 0 0 0 0 0 0 0 0 0 0 0 0 0 0 0 0 0 0 0 0 0 0 0 0 0 0 0 0 0 0 0 0 0 0
0 0 0 0 0 0 0 0 0 0 0 0 0 0 0 0 0 0 0 0 0 0 0 0 0 0 0 0 0 0 0 0 0 0 0 0 0 0 0 0 0 0 0 0
0 0 0 0 0 0 0 0 0 0 0 0 0 0 0 0 0 0 0 0 0 0 0 0 0 0 0 0 0 0 0 0 0 0 0 0 0 0 0 0 0 0 0 0
0 0 0 0 0 0 0 0 0 0 0 0 0 0 0 0 0 0 0 0 0 0 0 0 0 0 0 0 0 0 0 0 0 0 0 0 0 0 0 0 0 0 0 0
0 0 0 0 0 0 0 0 -0 0 0 0 0 0 0 0 0 0 0 0 0 0 0 0 0 0 0 0 0 0 0 0 0 0 0 0 0 0 0 0 0 0 0 0
0 0 0 0 0 0 0 -0 0 0 0 0 0 0 0 0 0 0 0 0 0 0 0 0 0 0 0 0 0 0 0 0 0 0 0 0 0 0 0 0 0 0 0 0
0 0 0 0 0 0 0 0 0 0 0 0 0 0 0 0 0 0 0 0 0 0 0 0 0 0 0 0 0 0 0 0 0 0 0 0 0 0 0 0 0 0 0 0
0 0 0 0 0 0 0 0 0 0 0 0 0 0 0 0 0 0 0 0 0 0 0 0 0 0 0 0 0 0 0 0 0 0 0 0 0 0 0 0 0 0 0 0
0 0 0 0 0 0 0 0 0 0 0 0 0 0 0 0 0 0 0 0 0 0 0 0 0 0 0 0 0 0 0 0 0 0 0 0 0 0 0 0 0 0 0 0
0 0 0 0 0 0 0 0 0 0 0 0 0 0 0 0 0 0 0 0 0 0 0 0 0 0 0 0 0 0 0 0 0 0 0 0 0 0 0 0 0 0 0 0
0 0 0 0 0 0 0 0 0 0 0 0 0 0 0 0 0 0 0 0 0 0 0 0 0 0 0 0 0 0 0 0 0 -0 0 0 0 0 0 0 0 0 0 0
-0 -0 -0 0 0 0 0 0 0 0 0 0 0 0 0 0 0 0 0 0 0 0 0 0 0 0 0 0 0 0 0 0 0 0 0 0 0 0 0 0 0 0 0 0
-0 -0 -0 0 0 0 0 0 0 0 0 0 0 0 0 0 0 0 0 0 0 0 0 0 0 0 0 0 0 0 0 0 0 0 0 0 0 0 0 0 0 0 0 0
0 0 0 0 0 0 0 0 0 0 0 0 0 0 0 0 0 0 0 0 0 0 0 0 0 0 0 0 0 0 0 0 0 0 0 0 0 0 0 0 0 0 0 0
0 0 0 0 0 0 0 0 0 0 0 0 0 0 0 0 0 0 0 0 0 0 0 0 0 0 0 0 0 0 0 0 0 0 0 0 0 0 0 0 0 0 0 0
0 0 0 0 0 0 0 0 0 0 0 0 0 0 0 0 0 0 0 0 0 0 0 0 0 0 0 0 0 0 0 0 0 0 0 0 0 0 0 0 0 0 0 0
0 0 0 0 0 0 0 0 0 0 0 0 0 0 0 0 0 0 0 0 0 0 0 0 0 0 0 0 0 0 0 0 0 0 0 0 0 0 0 0 0 0 0 0
0 0 0 0 0 0 0 0 0 0 0 0 0 0 0 0 0 0 0 0 0 0 0 0 0 0 0 0 0 0 0 0 0 0 0 0 0 0 0 0 0 0 0 0
0 0 0 0 0 0 0 0 0 0 0 0 0 0 0 0 0 0 0 0 0 0 0 0 0 0 0 0 0 0 0 0 0 0 0 0 0 0 0 0 0 0 0 0
Wind_Speed
17 16 16 15 14 13 14 16 16 14 12 9 8 7 8 8 4 3 5 7 9 8 6 6 7 8 8 8 7 7 8 9 9 8 6 6 5 4 4 4 4 3 2 2
16 16 16 18 18 16 17 18 17 15 13 10 8 7 6 5 3 5 5 6 8 10 9 8 8 7 6 6 7 8 8 8 7 6 7 6 4 3 3 2 1 3 4 3
12 15 16 17 18 19 18 18 16 14 10 8 7 6 6 4 1 3 2 3 2 1 5 7 8 8 7 7 7 9 9 7 6 4 5 5 4 3 2 1 2 4 4 4
5 7 14 11 12 15 15 15 14 11 7 5 4 5 4 5 6 5 6 4 4 4 5 4 3 5 7 8 7 7 7 9 8 6 6 6 5 5 4 3 4 4 4 3
3 6 11 13 9 7 7 7 9 8 4 1 4 4 1 7 7 7 7 6 5 4 4 5 5 4 1 4 6 5 6 8 8 7 7 6 6 5 4 4 5 4 3 3
4 5 6 5 7 3 3 4 3 4 3 2 2 3 4 9 8 7 7 6 3 1 4 5 7 7 4 3 2 4 5 5 5 5 6 5 5 5 4 4 4 3 2 2
9 7 7 5 7 1 1 2 4 3 3 4 4 3 8 9 9 8 7 5 4 5 5 5 5 5 4 4 4 3 4 4 3 3 5 5 5 4 4 3 3 3 3 3
8 6 3 8 5 2 2 4 3 3 3 4 3 7 9 10 9 8 6 5 4 5 5 4 5 4 3 4 4 3 2 2 3 4 4 5 5 4 3 3 3 4 3 3
5 1 5 3 1 4 6 7 6 5 5 4 4 4 9 10 9 8 7 5 4 4 4 3 2 4 4 3 3 2 1 2 3 3 4 4 3 4 3 3 3 3 3 3
6 7 4 3 1 2 4 4 5 4 5 5 6 3 10 9 9 8 7 6 4 4 5 5 4 2 2 3 2 1 2 1 1 2 2 2 2 3 3 3 4 3 3 3
11 5 2 2 1 3 4 4 5 4 3 4 5 3 9 8 8 8 6 6 5 4 3 4 5 4 1 1 2 3 2 2 2 1 1 1 1 1 1 0 1 2 1 1
5 3 1 2 5 4 3 4 4 4 4 1 2 3 7 7 7 7 7 6 5 4 3 2 4 4 3 2 1 2 1 1 2 2 2 1 1 3 5 4 6 6 6 3
9 4 1 1 4 4 2 2 2 3 3 2 3 5 6 7 7 7 7 7 7 5 3 2 3 3 2 3 1 0 1 1 1 2 1 1 1 2 3 3 3 3 5 5
17 10 5 4 4 3 2 2 3 3 3 3 5 6 6 7 8 7 7 7 6 4 4 3 4 3 2 2 2 2 2 2 1 0 1 1 2 3 3 3 4 3 3 4
20 14 9 7 6 5 4 5 5 4 4 5 7 7 7 7 8 7 6 5 5 5 4 5 5 4 3 1 2 3 1 0 1 1 2 2 2 3 3 3 3 4 4 4
18 15 13 12 10 8 7 7 6 4 3 5 8 8 8 7 7 7 5 5 6 5 5 5 6 5 3 1 1 1 2 2 1 1 2 1 1 1 1 2 3 3 3 3
18 15 14 13 11 9 8 7 6 4 4 7 9 9 9 7 7 6 6 6 5 5 5 5 7 6 3 2 2 1 1 3 2 1 1 1 1 1 2 2 3 2 2 4
20 19 16 13 10 9 8 7 6 5 5 8 10 10 9 8 7 6 7 6 5 5 5 7 9 7 4 2 1 1 1 1 0 1 1 2 2 1 1 2 3 3 3 4
20 17 15 14 12 9 7 6 5 6 7 8 10 10 8 8 7 7 8 8 7 6 6 8 9 7 6 4 1 0 1 1 1 1 2 3 2 1 2 3 3 3 3 3
19 17 17 15 12 8 6 5 6 5 6 8 10 9 8 7 7 8 8 6 5 5 8 9 6 4 6 5 2 0 1 1 1 2 2 1 1 2 3 3 3 3 3 3
16 14 12 9 7 6 6 6 5 5 6 7 9 9 9 8 8 8 8 6 5 7 10 9 5 5 5 4 3 2 2 2 2 2 2 1 1 1 2 3 3 3 2 2
8 6 6 6 6 6 6 6 6 6 6 7 8 9 9 9 9 8 8 6 7 10 7 4 5 7 6 4 3 3 3 3 2 2 2 2 1 1 1 2 2 2 2 2
6 6 7 8 8 8 6 6 7 6 6 7 8 8 10 9 8 8 8 7 8 9 6 5 11 12 7 3 3 4 3 3 3 3 2 2 2 2 2 2 2 1 1 1
5 5 5 6 6 6 6 6 6 6 6 6 6 9 12 9 7 6 8 12 11 9 6 11 15 11 6 3 4 3 3 3 3 3 2 2 2 2 2 2 1 1 1 2
7 7 7 5 4 3 5 6 6 6 7 6 9 11 10 7 7 8 10 11 13 11 9 11 14 10 5 3 4 4 4 4 3 2 2 2 2 2 2 3 3 2 2 2
4 4 2 2 2 3 4 5 5 5 6 7 8 8 8 8 10 10 9 11 12 11 9 7 7 5 3 4 4 4 4 4 2 2 2 2 2 2 3 3 4 3 3 2
3 1 1 1 2 3 5 6 6 6 7 8 9 8 9 9 9 10 11 9 8 8 7 6 5 4 3 5 4 4 3 3 3 2 1 1 2 3 4 4 3 2 1 1
Wind_Direction
270 272 273 260 246 238 250 265 273 281 288 293 282 261 263 265 238 170 160 168 173 182 201 193 199 201 200 197 188 173 166 177 187 186 176 169 177 197 218 249 285 305 286 270
278 282 283 280 274 264 254 257 266 271 270 276 282 282 273 272 270 175 178 193 188 183 193 204 202 200 198 191 186 175 183 187 174 176 160 156 165 203 232 225 266 304 292 267
283 291 291 272 264 261 259 257 257 257 258 271 287 307 306 287 288 126 105 56 45 179 195 205 205 193 189 193 197 187 184 159 145 161 144 146 163 207 240 269 262 264 272 256
276 279 260 261 270 262 253 249 242 240 240 255 329 340 340 47 45 57 85 74 45 15 352 329 270 200 188 186 192 196 174 153 159 175 163 164 183 204 206 227 244 238 258 251
233 243 267 263 243 223 233 244 229 223 214 78 28 314 202 100 76 73 81 75 58 21 341 335 345 349 217 183 177 180 160 156 162 166 161 166 182 198 207 224 225 213 233 214
233 239 263 212 150 141 264 266 215 106 57 12 283 284 111 112 111 106 99 93 90 29 29 28 21 11 12 31 83 122 120 121 131 146 156 173 193 206 213 228 219 189 213 212
247 251 255 125 106 123 244 75 64 43 343 322 295 85 123 125 122 116 107 105 96 71 56 35 20 6 5 26 36 73 111 127 153 174 179 189 205 212 209 217 207 197 210 216
232 241 213 143 161 225 315 11 16 350 334 323 344 118 134 130 122 120 118 113 100 95 81 50 17 1 42 61 47 59 114 180 207 207 208 211 205 206 190 197 206 209 218 218
233 225 123 148 43 351 338 335 345 344 342 341 319 168 143 137 141 146 140 131 122 122 125 119 70 18 31 69 51 15 321 244 245 241 233 236 189 165 184 203 206 208 200 204
245 244 172 147 278 318 334 343 341 339 341 323 293 217 145 150 156 150 143 140 156 171 177 164 149 135 19 9 17 332 311 323 319 292 268 237 180 166 185 205 203 208 206 209
226 230 179 187 107 37 20 342 322 315 301 295 284 179 145 158 152 145 142 147 172 194 203 170 159 155 140 6 328 305 275 226 223 235 309 322 111 103 165 139 169 167 166 180
242 230 211 52 42 24 336 309 309 315 306 262 250 149 144 147 138 142 149 156 179 201 206 180 146 146 143 138 258 301 307 233 205 208 230 218 161 127 84 98 109 107 100 87
287 287 302 336 327 311 305 330 324 304 283 233 190 153 142 134 138 150 159 170 190 197 173 111 112 117 121 136 157 85 21 321 219 208 196 186 191 185 166 127 116 131 133 121
308 309 291 288 300 320 325 306 283 279 248 204 164 144 141 144 153 164 173 183 183 152 134 137 129 127 129 146 147 107 64 25 331 267 175 192 211 211 198 178 170 161 159 145
287 289 288 290 287 275 263 254 246 250 247 187 155 150 156 161 163 173 183 173 145 141 154 149 138 136 121 51 62 90 105 213 257 204 176 207 221 213 198 180 153 142 138 131
267 272 277 276 268 260 256 266 253 234 228 180 159 161 168 172 165 173 180 153 148 166 171 162 145 133 133 135 99 159 160 153 305 195 171 199 245 66 89 108 118 129 140 133
260 264 268 267 259 253 253 262 263 241 200 175 165 165 170 176 172 173 160 144 156 163 152 137 122 121 129 136 141 167 152 157 200 238 193 161 108 68 67 90 108 121 119 109
249 252 256 265 262 253 256 257 248 226 188 175 166 169 175 179 174 165 149 146 150 135 130 125 126 136 148 152 135 113 125 108 80 31 128 128 126 135 117 106 111 116 119 124
243 248 255 263 267 269 271 270 260 213 185 178 171 174 177 173 163 157 147 150 153 149 134 114 128 154 148 123 80 267 89 111 126 89 110 126 151 143 122 121 128 138 138 143
242 246 250 252 253 252 247 253 259 224 184 179 173 171 169 163 153 144 140 145 149 146 135 133 157 162 125 123 146 207 124 109 85 89 94 126 137 129 129 135 142 150 155 164
234 238 242 243 241 241 239 237 237 217 183 179 175 171 164 152 141 136 137 137 124 116 125 140 147 114 112 134 176 167 131 105 91 88 96 81 60 61 137 149 155 165 170 172
228 227 228 228 223 222 219 219 222 210 182 179 173 165 150 138 136 135 133 129 124 122 129 149 127 121 131 153 151 115 105 100 97 90 86 77 46 22 58 87 109 129 155 170
214 212 214 219 221 222 207 205 209 191 178 176 169 158 141 137 141 143 141 132 137 145 141 125 128 136 145 171 124 118 114 100 92 86 81 78 67 51 60 68 74 74 54 73
273 272 263 248 230 208 184 190 182 165 161 156 153 136 130 130 135 132 125 134 141 141 116 131 142 150 177 160 129 121 109 100 97 95 80 67 63 57 64 67 64 69 55 55
274 272 264 250 231 181 164 162 147 141 143 136 129 124 129 134 133 125 127 136 135 126 126 151 154 165 195 142 126 119 106 93 86 100 123 112 96 72 63 61 53 49 54 64
294 283 265 216 192 149 146 140 135 133 132 127 124 126 125 119 117 122 129 138 141 132 137 148 158 185 191 125 121 120 123 127 115 85 87 105 113 106 90 75 60 49 51 56
305 303 334 241 177 145 135 133 136 140 139 138 137 132 128 127 130 133 136 142 146 143 146 155 165 180 137 123 133 143 148 153 160 163 145 106 91 88 80 72 61 47 55 66